EDT,Max TemperatureF,Mean TemperatureF,Min TemperatureF,Max Dew PointF,MeanDew PointF,Min DewpointF,Max Humidity, Mean Humidity, Min Humidity, Max Sea Level PressureIn, Mean Sea Level PressureIn, Min Sea Level PressureIn, Max VisibilityMiles, Mean VisibilityMiles, Min VisibilityMiles, Max Wind SpeedMPH, Mean Wind SpeedMPH, Max Gust SpeedMPH,PrecipitationIn, CloudCover, Events, WindDirDegrees
2013-7-1,87,83,79,77,75,73,84,76,63,30.08,30.02,30.00,9,7,6,14,12,,0.00,6,Rain,132
2013-7-2,89,82,75,79,76,72,94,79,63,30.16,30.09,30.04,8,6,5,15,10,28,0.39,6,Rain-Thunderstorm,137
2013-7-3,88,82,75,76,74,72,89,73,53,30.17,30.13,30.08,8,7,6,17,8,,0.04,5,,121
2013-7-4,88,84,80,75,74,73,84,71,57,30.16,30.13,30.09,9,7,6,16,9,,0.00,3,,122
2013-7-5,90,85,80,76,73,72,84,70,50,30.16,30.12,30.08,9,7,6,16,9,,0.08,5,,110
2013-7-6,88,82,77,75,73,72,83,71,53,30.13,30.08,30.03,9,7,6,15,7,,0.01,3,Rain,102
2013-7-7,88,82,76,77,73,70,94,72,53,30.10,30.07,30.02,9,7,6,15,6,,0.04,2,,85
2013-7-8,88,82,77,73,71,69,79,68,49,30.16,30.10,30.06,9,7,6,15,8,,0.00,3,,77
2013-7-9,86,80,75,76,73,72,94,80,62,30.18,30.11,30.06,9,6,6,15,5,,0.24,5,Rain-Thunderstorm,115
2013-7-10,89,84,78,75,74,72,89,72,59,30.12,30.07,30.03,9,7,6,12,6,,0.04,5,Rain,125
2013-7-11,89,84,78,78,75,73,89,76,61,30.07,30.02,29.98,9,7,6,12,6,,0.01,4,Rain-Thunderstorm,123
2013-7-12,89,80,71,75,73,70,94,78,64,30.03,29.99,29.96,9,7,1,21,7,32,0.55,6,Rain-Thunderstorm,184
2013-7-13,86,80,73,76,73,70,100,79,66,30.07,30.02,29.98,8,6,6,12,6,30,0.00,6,Rain,146
2013-7-14,88,82,76,77,74,72,86,75,54,30.10,30.07,30.03,9,7,6,12,5,,0.01,7,Rain,92
2013-7-15,88,82,77,76,73,70,84,74,58,30.08,30.06,30.03,9,6,6,14,7,,0.20,5,Rain,96
2013-7-16,81,76,71,75,72,68,100,90,79,30.15,30.09,30.05,8,5,1,20,7,29,2.72,7,Rain-Thunderstorm,113
2013-7-17,82,76,71,75,72,70,100,85,64,30.15,30.11,30.06,8,6,4,8,5,,2.99,7,Rain-Thunderstorm,94
2013-7-18,88,82,77,77,75,73,94,80,59,30.14,30.10,30.07,8,7,6,15,4,,0.00,5,,110
2013-7-19,90,84,79,77,76,75,89,79,62,30.17,30.11,30.07,8,7,6,14,7,,0.00,6,,113
2013-7-20,85,78,72,77,74,68,94,81,56,30.17,30.12,30.09,9,6,3,16,7,,0.51,7,Rain-Thunderstorm,129
2013-7-21,88,83,78,77,75,72,90,76,52,30.16,30.13,30.10,8,6,6,12,5,,0.00,6,,115
2013-7-22,89,83,77,77,75,73,94,75,62,30.17,30.13,30.09,9,7,6,12,4,,0.00,3,,122
2013-7-23,90,85,80,79,75,73,84,76,54,30.14,30.08,30.03,9,7,6,13,6,,0.00,2,,138
2013-7-24,87,82,78,77,74,72,94,78,62,30.06,30.01,29.98,9,7,6,8,2,,0.00,4,,178
2013-7-25,93,86,79,78,75,72,84,72,52,30.09,30.02,29.96,9,7,6,9,4,,0.00,5,,213
2013-7-26,93,86,78,76,74,71,84,68,41,30.08,30.04,30.01,9,7,6,9,2,,0.00,5,,187
2013-7-27,90,84,77,77,75,72,89,72,53,30.07,30.03,29.99,9,7,6,13,5,,0.01,5,Rain-Thunderstorm,165
2013-7-28,90,83,76,78,75,72,84,74,54,30.10,30.04,29.98,9,7,4,13,7,,0.24,5,Rain-Thunderstorm,147
2013-7-29,92,86,81,78,76,73,84,74,58,30.16,30.10,30.03,9,7,1,14,7,,0.00,5,Rain-Thunderstorm,111
2013-7-30,91,86,81,79,76,73,84,72,57,30.16,30.12,30.08,9,7,6,12,6,,0.00,5,,83
2013-7-31,90,86,81,75,73,72,79,67,54,30.12,30.06,30.01,9,7,6,14,8,,0.00,3,,102